Weather in Poshchupovo

Russia / Ryazan Oblast     54°49′14″N   39°43′11″E
temp.,
°C
wind,
m/s
gust,
m/s
humid.,
%
clouds,
%
prec.,
mm/h
press.,
hPa
HPBL,
m
29 june, wed
wed2900:00+12ene23700 0.0 102248
03:00+10ne22730 0.0 102321
06:00+13ne23690 0.0 1023122
09:00+18ne24460 0.0 1022958
12:00+21ne23363 0.0 10221928
15:00+23n23345 0.0 10202268
18:00+22nw23445 0.0 10201569
21:00+15nne22694 0.0 101914
30 june, thu
thu3000:00+12nne22720 0.0 102027
03:00+10n22805 0.0 102020
06:00+13nnw24745 0.0 1019126
09:00+19n34539 0.0 1019756
12:00+22nnw35373 0.0 10182049
15:00+24nnw46325 0.0 10162570
18:00+22n47455 0.0 10151165
21:00+16n36620 0.0 101693
1 july, fri
fri100:00+14nnw310700 0.0 1017196
03:00+13nnw37790 0.0 1017129
06:00+14nne39775 0.0 1018270
09:00+18ne57495 0.0 10191197
12:00+20nne58365 0.0 10192043
15:00+21nne57345 0.0 10192305
18:00+21nne47445 0.0 10191355
21:00+14nne22625 0.0 102024
2 july, sat
sat200:00+11wsw11724 0.0 102110
03:00+10nw22720 0.0 102024
06:00+13nw25715 0.0 1020132
09:00+20nw465214 0.0 1019617
12:00+24wnw45415 0.0 10171534
15:00+25w684261 0.0 10151928
18:00+24wsw476258 0.0 1013495
21:00+18nw228891 0.3 101326
3 july, sun
sun300:00+17nnw35861 0.0 101471
03:00+15n38940 0.0 1014146
06:00+16nne38860 0.0 1015270
09:00+20nne47575 0.0 1015922
12:00+24nne46432 0.0 10151520
15:00+26n35387 0.0 10141989
18:00+26nne35470 0.0 10131074
21:00+18ne22680 0.0 101411